Weather History for Stanley, ND

Change the Weather History Date:

Wednesday, October 30, 2013

  Actual Average (KMOT) Record (KMOT)
Temperature  
Mean Temperature 37 °F 38 °F  
Max Temperature 48 °F 47 °F 80 °F (1950)
Min Temperature 26 °F 28 °F 1 °F (1991)
Degree Days  
Heating Degree Days 28 27  
Month to date heating degree days 611  
Since 1 July heating degree days 931  
Cooling Degree Days 0 0  
Month to date cooling degree days 0  
Year to date cooling degree days 444  
Moisture  
Dew Point 30 °F    
Average Humidity 94    
Maximum Humidity 100    
Minimum Humidity 54    
Precipitation  
Precipitation 0.00 in 0.03 in 0.59 in (1971)
Month to date precipitation 1.13  
Year to date precipitation 16.03  
Sea Level Pressure  
Sea Level Pressure 29.79 in    
Wind  
Wind Speed 8 mph (SW)    
Max Wind Speed 14 mph    
Max Gust Speed -    
Visibility 10 miles    
Events      
T = Trace of Precipitation, MM = Missing Value Source: NWS Daily Summary

Daily Weather History Graph

Daily Weather History Graph

Search for Another Location

Airport:

Trip Planner

Search our weather history database for the weather conditions in past years. The results will help you decide how hot, cold, wet, or windy it might be!

Date:

Astronomy

Oct. 30, 2013 Rise Set
Actual Time 8:32 AM CDT 6:33 PM CDT
Civil Twilight 8:00 AM CDT 7:05 PM CDT
Nautical Twilight 7:23 AM CDT 7:42 PM CDT
Astronomical Twilight 6:46 AM CDT 8:18 PM CDT
Moon 4:05 AM CDT (10/30) 4:35 PM CDT (10/30)
Length of Visible Light 11h 05m
Length of Day
10h 00m
Waning Crescent, 17% of the Moon is Illuminated
Oct 30
Waning Crescent
Nov 3
New
Nov 9
First Quarter
Nov 17
Full
Nov 25
Last Quarter

Hourly Weather History & Observations

Time (CDT) Temp. Windchill Dew Point Humidity Pressure Visibility Wind Dir Wind Speed Gust Speed Precip Events Conditions
12:15 AM 32.0 °F 22.1 °F 30.2 °F 93% 29.97 in 10.0 mi SSW 13.8 mph - N/A   Overcast
12:35 AM 32.0 °F 22.1 °F 30.2 °F 93% 29.97 in 10.0 mi SSW 13.8 mph - N/A   Overcast
12:55 AM 32.0 °F 22.1 °F 30.2 °F 93% 29.96 in 10.0 mi SSW 13.8 mph - N/A   Overcast
1:15 AM 32.0 °F 23.6 °F 32.0 °F 100% 29.96 in 10.0 mi SSW 10.4 mph - N/A   Overcast
1:35 AM 32.0 °F 23.6 °F 32.0 °F 100% 29.95 in 10.0 mi South 10.4 mph - N/A   Overcast
1:55 AM 32.0 °F 24.2 °F 32.0 °F 100% 29.94 in 10.0 mi South 9.2 mph - N/A   Overcast
2:15 AM 32.0 °F 25.6 °F 32.0 °F 100% 29.94 in 10.0 mi SSW 6.9 mph - N/A   Overcast
2:35 AM 32.0 °F 24.8 °F 32.0 °F 100% 29.93 in 10.0 mi SSW 8.1 mph - N/A   Overcast
2:55 AM 32.0 °F 24.2 °F 32.0 °F 100% 29.93 in 10.0 mi SSW 9.2 mph - N/A   Overcast
3:15 AM 32.0 °F 25.6 °F 32.0 °F 100% 29.92 in 10.0 mi South 6.9 mph - N/A   Overcast
3:35 AM 32.0 °F 26.4 °F 32.0 °F 100% 29.92 in 10.0 mi SSW 5.8 mph - N/A   Overcast
3:55 AM 32.0 °F 25.6 °F 32.0 °F 100% 29.92 in 10.0 mi South 6.9 mph - N/A   Overcast
4:15 AM 28.4 °F 22.2 °F 28.4 °F 100% 29.91 in 10.0 mi South 5.8 mph - N/A   Overcast
4:35 AM 28.4 °F 23.3 °F 28.4 °F 100% 29.90 in 10.0 mi SW 4.6 mph - N/A   Mostly Cloudy
4:55 AM 26.6 °F 22.6 °F 26.6 °F 100% 29.90 in 10.0 mi SW 3.5 mph - N/A   Overcast
5:15 AM 28.4 °F - 28.4 °F 100% 29.90 in 10.0 mi Calm Calm - N/A   Scattered Clouds
5:35 AM 26.6 °F - 26.6 °F 100% 29.90 in 10.0 mi Calm Calm - N/A   Mostly Cloudy
5:55 AM 28.4 °F 19.7 °F 28.4 °F 100% 29.89 in 10.0 mi South 9.2 mph - N/A   Overcast
6:15 AM 28.4 °F 20.4 °F 28.4 °F 100% 29.88 in 10.0 mi SSW 8.1 mph - N/A   Overcast
6:35 AM 28.4 °F 20.4 °F 28.4 °F 100% 29.87 in 10.0 mi SSW 8.1 mph - N/A   Overcast
6:55 AM 28.4 °F 20.4 °F 28.4 °F 100% 29.87 in 10.0 mi SSW 8.1 mph - N/A   Overcast
7:15 AM 28.4 °F 20.4 °F 28.4 °F 100% 29.87 in 10.0 mi SSW 8.1 mph - N/A   Overcast
7:35 AM 28.4 °F 19.1 °F 28.4 °F 100% 29.86 in 10.0 mi SW 10.4 mph - N/A   Overcast
8:15 AM 28.4 °F 21.2 °F 28.4 °F 100% 29.86 in 6.0 mi SSW 6.9 mph - N/A   Overcast
8:35 AM 28.4 °F 21.2 °F 28.4 °F 100% 29.86 in 5.0 mi SSW 6.9 mph - N/A   Overcast
8:55 AM 28.4 °F 20.4 °F 28.4 °F 100% 29.86 in 2.0 mi South 8.1 mph - N/A   Overcast
9:15 AM 28.4 °F 21.2 °F 28.4 °F 100% 29.86 in 3.0 mi SW 6.9 mph - N/A   Overcast
9:35 AM 28.4 °F 19.1 °F 28.4 °F 100% 29.84 in 5.0 mi SSW 10.4 mph - N/A   Overcast
9:55 AM 30.2 °F 22.6 °F 30.2 °F 100% 29.84 in 5.0 mi SW 8.1 mph - N/A   Overcast
10:15 AM 30.2 °F 23.4 °F 30.2 °F 100% 29.83 in 10.0 mi South 6.9 mph - N/A   Overcast
10:35 AM 32.0 °F 24.8 °F 32.0 °F 100% 29.84 in 10.0 mi SSW 8.1 mph - N/A   Overcast
10:55 AM 32.0 °F 23.6 °F 32.0 °F 100% 29.83 in 10.0 mi SSW 10.4 mph - N/A   Overcast
11:15 AM 32.0 °F 24.8 °F 32.0 °F 100% 29.83 in 10.0 mi SSW 8.1 mph - N/A   Overcast
11:35 AM 32.0 °F 25.6 °F 32.0 °F 100% 29.82 in 10.0 mi SW 6.9 mph - N/A   Overcast
12:15 PM 35.6 °F 29.2 °F 32.0 °F 87% 29.80 in 10.0 mi WSW 8.1 mph - N/A   Mostly Cloudy
12:35 PM 35.6 °F 29.2 °F 32.0 °F 87% 29.79 in 10.0 mi SSW 8.1 mph - N/A   Overcast
12:55 PM 35.6 °F 29.2 °F 32.0 °F 87% 29.78 in 10.0 mi SSW 8.1 mph - N/A   Overcast
1:15 PM 37.4 °F 32.1 °F 32.0 °F 81% 29.76 in 10.0 mi SW 6.9 mph - N/A   Overcast
1:35 PM 39.2 °F 33.6 °F 32.0 °F 75% 29.75 in 10.0 mi SSW 8.1 mph - N/A   Mostly Cloudy
1:55 PM 39.2 °F 32.5 °F 32.0 °F 75% 29.73 in 10.0 mi SW 10.4 mph - N/A   Clear
2:15 PM 39.2 °F 33.0 °F 32.0 °F 75% 29.72 in 10.0 mi SW 9.2 mph - N/A   Clear
2:35 PM 39.2 °F 33.0 °F 32.0 °F 75% 29.71 in 10.0 mi SW 9.2 mph - N/A   Clear
2:55 PM 41.0 °F 35.8 °F 32.0 °F 70% 29.70 in 10.0 mi WSW 8.1 mph - N/A   Clear
3:15 PM 41.0 °F 34.3 °F 32.0 °F 70% 29.69 in 10.0 mi WSW 11.5 mph - N/A   Clear
3:35 PM 48.2 °F - 32.0 °F 54% 29.69 in 10.0 mi WSW 11.5 mph - N/A   Clear
3:55 PM 41.0 °F 33.9 °F 32.0 °F 70% 29.69 in 10.0 mi WSW 12.7 mph - N/A   Clear
4:15 PM 41.0 °F 33.9 °F 32.0 °F 70% 29.68 in 10.0 mi WSW 12.7 mph - N/A   Clear
4:35 PM 39.2 °F 32.5 °F 32.0 °F 75% 29.68 in 10.0 mi WSW 10.4 mph - N/A   Clear
4:55 PM 39.2 °F 33.6 °F 32.0 °F 75% 29.67 in 10.0 mi SW 8.1 mph - N/A   Clear
5:15 PM 37.4 °F 32.8 °F 32.0 °F 81% 29.67 in 10.0 mi SW 5.8 mph - N/A   Clear
6:55 PM 28.4 °F 24.6 °F 28.4 °F 100% 29.67 in 10.0 mi SSW 3.5 mph - N/A   Clear
7:15 PM 28.4 °F 24.6 °F 28.4 °F 100% 29.66 in 10.0 mi WSW 3.5 mph - N/A   Clear
7:35 PM 26.6 °F - 26.6 °F 100% 29.66 in 10.0 mi Calm Calm - N/A   Clear
7:55 PM 28.4 °F - 28.4 °F 100% 29.66 in 10.0 mi Calm Calm - N/A   Clear
8:15 PM 28.4 °F - 28.4 °F 100% 29.65 in 10.0 mi Calm Calm - N/A   Clear
8:35 PM 26.6 °F - 26.6 °F 100% 29.64 in 10.0 mi Calm Calm - N/A   Clear
8:55 PM 26.6 °F - 26.6 °F 100% 29.64 in 10.0 mi Calm Calm - N/A   Clear
9:15 PM 26.6 °F 22.6 °F 26.6 °F 100% 29.63 in 10.0 mi SSW 3.5 mph - N/A   Clear
9:35 PM 26.6 °F 22.6 °F 26.6 °F 100% 29.63 in 10.0 mi WSW 3.5 mph - N/A   Clear
9:55 PM 26.6 °F - 26.6 °F 100% 29.63 in 10.0 mi Calm Calm - N/A   Clear
10:15 PM 26.6 °F 22.6 °F 26.6 °F 100% 29.62 in 10.0 mi West 3.5 mph - N/A   Clear
10:35 PM 26.6 °F 21.2 °F 26.6 °F 100% 29.61 in 10.0 mi West 4.6 mph - N/A   Clear
10:55 PM 26.6 °F 22.6 °F 26.6 °F 100% 29.61 in 10.0 mi SW 3.5 mph - N/A   Clear
11:15 PM 26.6 °F 20.0 °F 26.6 °F 100% 29.61 in 10.0 mi WSW 5.8 mph - N/A   Clear
11:35 PM 26.6 °F 21.2 °F 26.6 °F 100% 29.60 in 10.0 mi West 4.6 mph - N/A   Clear
11:55 PM 26.6 °F 21.2 °F 26.6 °F 100% 29.59 in 10.0 mi West 4.6 mph - N/A   Clear